Content
SEND FEEDBACK

Daily
Averages
Monthly
Summary
United States of America

CRESCENT CITY, CALIFORNIA


Home > North America > United States > California
Elevation: 56 feet     Latitude: 41 46N     Longitude: 124 14W

WEATHER
 
SELECT A DAY
Number of Records: 275,642;   Date Range: 1/1/95 - 12/18/14
 
SHARE

PRINT THIS DATA

[ ← Previous Day ]
WEATHER ALMANAC - JUNE 26, 2013
[ Next Day → ]
[ °C ]   °F
We're sorry. There is no daily almanac available for Crescent City, California on June 26, 2013.
WEATHER BY HOUR - JUNE 26, 2013
[ °C ]   °F
Local TimeTemperatureDewpointHumidityBarometerVisibilityWind DirectionWind SpeedGust SpeedPrecipitationEventsConditions
12:08 AM57.2 °F55.4 °F94 %29.91 in2.5 miSSE (160°)8.1 mph0.01 inRainLight Rain
12:21 AM55.4 °F55.4 °F100 %29.91 in2.0 miSE (140°)8.1 mph0.04 inRainRain
12:34 AM55.4 °F55.4 °F100 %29.91 in4.0 miSSE (150°)11.5 mph0.06 inRainLight Rain
12:56 AM55.9 °F55.9 °F100 %29.92 in6.0 miSSE (150°)10.4 mph0.07 inRainLight Rain
1:56 AM55.9 °F55.9 °F100 %29.92 in4.0 miSSE (150°)11.5 mph0.00 inRainLight Rain
2:56 AM57.0 °F57.0 °F100 %29.93 in4.0 miSSE (150°)12.7 mph0.02 inRainLight Rain
3:46 AM57.2 °F57.2 °F100 %29.93 in2.5 miSouth (170°)10.4 mph0.06 inRainRain
3:56 AM57.0 °F57.0 °F100 %29.94 in2.5 miSouth (170°)9.2 mph0.08 inRainLight Rain
4:04 AM57.2 °F57.2 °F100 %29.93 in5.0 miSSE (160°)11.5 mph0.00 inRainLight Rain
4:56 AM57.9 °F57.9 °F100 %29.94 in8.0 miSSE (150°)9.2 mph0.00 inOvercast
5:56 AM57.9 °F57.9 °F100 %29.96 in5.0 miSSE (160°)8.1 mph0.00 inOvercast
6:16 AM57.2 °F57.2 °F100 %29.95 in2.0 miSSE (150°)8.1 mph0.02 inRainLight Rain
6:29 AM57.2 °F57.2 °F100 %29.96 in4.0 miSSE (150°)6.9 mph0.02 inRainLight Rain
6:56 AM57.0 °F57.0 °F100 %29.97 in3.0 miSSE (150°)5.8 mph0.02 inOvercast
7:05 AM57.2 °F57.2 °F100 %29.96 in2.5 miSSE (160°)6.9 mph0.01 inRainLight Rain
7:32 AM57.2 °F57.2 °F100 %29.97 in1.5 miSSE (160°)5.8 mph0.01 inRainLight Rain
7:54 AM57.2 °F57.2 °F100 %29.98 in2.5 miSSE (150°)6.9 mph0.04 inRainLight Rain
7:56 AM57.0 °F57.0 °F100 %29.98 in3.0 miSSE (150°)8.1 mph0.04 inRainLight Rain
8:16 AM57.2 °F57.2 °F100 %29.99 in2.0 miSSE (150°)8.1 mph0.00 inRainLight Rain
8:27 AM57.2 °F57.2 °F100 %29.99 in4.0 miSSE (160°)8.1 mph0.00 inRainLight Rain
8:52 AM57.2 °F57.2 °F100 %30.00 in2.5 miSSE (150°)9.2 mph0.01 inRainLight Rain
8:56 AM57.0 °F57.0 °F100 %30.00 in2.5 miSSE (150°)10.4 mph0.01 inRainLight Rain
9:16 AM57.2 °F57.2 °F100 %30.00 in5.0 miSE (140°)10.4 mph0.01 inRainLight Rain
9:56 AM57.9 °F57.9 °F100 %30.01 in10.0 miSSE (150°)11.5 mph0.01 inOvercast
10:39 AM59.0 °F59.0 °F100 %30.02 in10.0 miSSE (150°)10.4 mphOvercast
10:56 AM59.0 °F59.0 °F100 %30.03 in10.0 miSSE (160°)10.4 mphOvercast
11:56 AM60.1 °F60.1 °F100 %30.03 in10.0 miSouth (170°)8.1 mphOvercast
12:11 PM60.8 °F60.8 °F100 %30.03 in10.0 miSouth (180°)9.2 mphOvercast
12:39 PM62.6 °F60.8 °F94 %30.04 in10.0 miSouth (180°)8.1 mphOvercast
12:56 PM62.1 °F60.1 °F93 %30.04 in10.0 miSouth (170°)8.1 mphOvercast
1:03 PM62.6 °F60.8 °F94 %30.04 in10.0 miSouth (180°)8.1 mphOvercast
1:13 PM62.6 °F60.8 °F94 %30.04 in10.0 miSouth (180°)8.1 mphOvercast
1:48 PM60.8 °F59.0 °F94 %30.05 in10.0 miSouth (180°)9.2 mphOvercast
1:56 PM61.0 °F59.0 °F93 %30.05 in10.0 miSouth (170°)9.2 mphOvercast
2:56 PM66.0 °F61.0 °F84 %30.04 in10.0 miSouth (170°)10.4 mphOvercast
3:56 PM64.0 °F59.0 °F84 %30.05 in10.0 miSouth (170°)10.4 mphOvercast
4:56 PM63.0 °F59.0 °F87 %30.05 in10.0 miSSE (160°)10.4 mphOvercast
5:56 PM63.0 °F59.0 °F87 %30.05 in10.0 miSouth (170°)9.2 mphOvercast
6:56 PM62.1 °F57.9 °F86 %30.05 in10.0 miSSE (150°)10.4 mphOvercast
7:56 PM62.1 °F59.0 °F90 %30.05 in10.0 miSSE (150°)9.2 mphOvercast
8:43 PM62.6 °F59.0 °F88 %30.04 in10.0 miSSE (160°)4.6 mphOvercast
8:56 PM61.0 °F59.0 °F93 %30.05 in10.0 miSouth (180°)3.5 mphOvercast
9:22 PM60.8 °F59.0 °F94 %30.05 in10.0 miESE (120°)3.5 mphOvercast
9:56 PM62.1 °F59.0 °F90 %30.05 in10.0 miSE (130°)3.5 mphOvercast
10:56 PM62.1 °F59.0 °F90 %30.06 in10.0 miSSE (160°)9.2 mphOvercast
11:56 PM60.1 °F57.9 °F93 %30.06 in9.0 miSouth (170°)8.1 mphOvercast
Hourly data recorded from KCEC, located miles away from Crescent City, California







STORIES FROM OUR PARTNERS